Simultaneous Nadir Overpasses (SNOs) Predictions

Prediction of SNOs between AQUA and GOES-15 Satellite Orbit:

Table of predicted SNOs for the next 14.0 days since TLE Epoch: 1/16/2015
Index Date Time (AQUA) AQUA Lat,Lon GOES-15 Lat,Lon Distance(km) Time Diff (sec)
1 01/18/2015 10:26:27 -0.48,-132.69 -0.09,-134.67 223.56 80
2 01/18/2015 22:47:52 -0.61,-137.89 0.10,-134.60 373.97 80
3 01/20/2015 22:35:43 0.03,-134.94 0.09,-134.50 49.38 80
4 01/22/2015 22:23:33 0.62,-131.98 0.09,-134.40 274.92 80
5 01/23/2015 10:44:49 0.47,-137.14 -0.10,-134.41 310.17 80
6 01/25/2015 10:32:38 -0.09,-134.17 -0.09,-134.30 14.00 80
7 01/27/2015 10:20:28 -0.74,-131.22 -0.09,-134.18 337.28 80
8 01/27/2015 22:41:52 -0.39,-136.40 0.09,-134.11 261.01 80
9 01/29/2015 22:29:41 0.22,-133.44 0.09,-133.99 62.24 80




NCC Satellite Simultaneous Nadir Overpasses (SNOs) Prediction Service
